Regional Weather Roundup
Issued by NWS Albany, NY

Home | Current Version | Previous Version | Graphics & Text | Print | Product List | Glossary Off
Versions: 1 2 3 4 5 6 7 8 9 10 11 12 13 14 15 16 17 18 19 20 21 22 23 24 25 26 27 28 29 30 31 32 33 34 35 36 37 38 39 40 41 42 43 44 45 46 47 48 49

000
ASUS41 KALY 201510
RWRALY

NEW YORK STATE HOURLY WEATHER ROUNDUP
NATIONAL WEATHER SERVICE ALBANY NY
1000 AM EST SAT DEC 20 2014

NOTE: "FAIR" INDICATES FEW OR NO CLOUDS BELOW 12,000 FEET WITH NO
SIGNIFICANT WEATHER AND/OR NO OBSTRUCTIONS TO VISIBILITY.

NYZ032-033-038>043-046>054-057>066-NYZ062>081-201600-
EAST


CITY           SKY/WX    TMP DP  RH WIND       PRES   REMARKS
ALBANY         PTSUNNY   25  16  68 NW5       30.34R WCI  19
GLENS FALLS    CLOUDY    22  16  78 E5        30.33S WCI  16
POUGHKEEPSIE   CLOUDY    29  18  63 N9        30.30S WCI  20
NEWBURGH       CLOUDY    27  21  80 NE6       30.29R WCI  20
MONTGOMERY     CLOUDY    29  19  66 NE9       30.28R WCI  20
WHITE PLAINS   CLOUDY    29  19  66 VRB3      30.27R
ISLIP          CLOUDY    32  21  64 NW9       30.27R WCI  24
NEW YORK CITY  CLOUDY    31  20  63 N7        30.31R WCI  24
CENTRAL PARK   CLOUDY    31  18  58 CALM      30.33R
$$

NYZ005>009-017-018-044>046-055-056-201600-
CENTRAL


CITY           SKY/WX    TMP DP  RH WIND       PRES   REMARKS
FULTON         MOSUNNY   27  19  72 NE3       30.30S
SYRACUSE       PTSUNNY   25  20  81 CALM      30.30S
ROME           CLOUDY    22  18  85 E5        30.33R WCI  16
ELMIRA         CLOUDY    29  21  72 NW7       30.26R WCI  22
BINGHAMTON     CLOUDY    25  20  81 N6        30.21R WCI  18
MONTICELLO     CLOUDY    23  19  86 N7        30.23R WCI  15
$$

NYZ026>034-041>043-201600-
NORTH


CITY           SKY/WX    TMP DP  RH WIND       PRES   REMARKS
WATERTOWN      SUNNY     21  14  74 CALM      30.32F
FORT DRUM      NOT AVBL
MASSENA        MOSUNNY   12  10  92 CALM      30.36S
SARANAC LAKE   SUNNY     13  10  88 CALM      30.20S
PLATTSBURGH    CLOUDY    18  14  84 W5        30.35R WCI  11
$$

NYZ001>004-010>016-019>021-201600-
WEST


CITY           SKY/WX    TMP DP  RH WIND       PRES   REMARKS
NIAGARA FALLS  PTSUNNY   28  23  81 W6        30.30R WCI  22
BUFFALO        MOSUNNY   30  22  72 W6        30.29R WCI  24
DUNKIRK        CLOUDY    30  22  72 NW6       30.29F WCI  24
JAMESTOWN      CLOUDY    25  19  80 NW6       30.22F WCI  18
WELLSVILLE     CLOUDY    22  18  85 W8        30.22R WCI  12
ROCHESTER      CLOUDY    29  21  72 NW5       30.30S WCI  24
PENN YAN       CLOUDY    28  20  71 NW6       30.28R WCI  22
$$

             KEY
       WCI = WIND CHILL INDEX
       VSB = VISIBILITY
       HX  = HEAT INDEX
$$



USA.gov is the U.S. government's official web portal to all federal, state and local government web resources and services.